Point Lay, AK

8:28 PM AKST on February 23, 2017 (GMT -0900)
Point Lay

Weather History for PPIZ - April, 2013

Change the Weather History Date:

Thursday, April 4, 2013

  Actual Average Record
Temperature  
Mean Temperature -8 °F -  
Max Temperature -4 °F 8 °F 35 °F (1999)
Min Temperature -13 °F -2 °F -24 °F (2006)
Degree Days  
Heating Degree Days 74    
Moisture  
Dew Point -15 °F    
Average Humidity 77    
Maximum Humidity 84    
Minimum Humidity 70    
Precipitation  
Precipitation 0.00 in - - ()
Sea Level Pressure  
Sea Level Pressure 30.74 in    
Wind  
Wind Speed 24 mph (ENE)    
Max Wind Speed 32 mph    
Max Gust Speed 33 mph    
Visibility 2 miles    
Events      
Averages and records for this station are not official NWS values.
T = Trace of Precipitation, MM = Missing Value Source: NWS Daily Summary

Daily Weather History Graph

Daily Weather History Graph

Search for Another Location

Airport or City:

Trip Planner

Search our weather history database for the weather conditions in past years. The results will help you decide how hot, cold, wet, or windy it might be!

Date:

Astronomy

Apr. 04, 2013 Rise Set
Actual Time 7:39 AM AKDT 10:12 PM AKDT
Civil Twilight 6:32 AM AKDT 11:21 PM AKDT
Nautical Twilight 4:47 AM AKDT 1:10 AM AKDT
Astronomical Twilight Sun does not rise Sun does not rise
Moon 7:16 AM AKDT (4/4) 1:50 PM AKDT (4/4)
Length of Visible Light 16h 48m
Length of Day
14h 33m
Waning Crescent, 32% of the Moon is Illuminated
Apr 4
Waning Crescent
Apr 10
New
Apr 18
First Quarter
Apr 25
Full
May 2
Last Quarter

Hourly Weather History & Observations

Time (AKDT) Temp. Windchill Dew Point Humidity Pressure Visibility Wind Dir Wind Speed Gust Speed Precip Events Conditions
12:56 AM -10.8 °F -37.1 °F -17.0 °F 74% 30.75 in 4.0 mi NE 21.9 mph - N/A   Haze
1:56 AM -13.0 °F -40.6 °F -17.9 °F 79% 30.76 in 3.0 mi ENE 23.0 mph - N/A   Haze
2:29 AM -13.0 °F -41.1 °F -18.4 °F 77% 30.74 in 2.5 mi ENE 24.2 mph - N/A   Haze
2:38 AM -13.0 °F -41.6 °F -18.4 °F 77% 30.73 in 3.0 mi ENE 25.3 mph - N/A   Haze
2:46 AM -13.0 °F -42.1 °F -18.4 °F 77% 30.73 in 2.0 mi ENE 26.5 mph - N/A   Haze
2:56 AM -13.0 °F -42.1 °F -17.9 °F 79% 30.74 in 2.0 mi ENE 26.5 mph - N/A   Haze
3:43 AM -13.0 °F -42.1 °F -18.4 °F 77% 30.71 in 1.8 mi ENE 26.5 mph - N/A   Haze
3:56 AM -13.0 °F -43.0 °F -18.4 °F 77% 30.71 in 1.2 mi ENE 28.8 mph - N/A   Haze
4:56 AM -11.9 °F -41.1 °F -17.9 °F 75% 30.74 in 1.2 mi ENE 27.6 mph - N/A   Haze
5:22 AM -11.2 °F -41.9 °F -16.6 °F 77% 30.70 in 1.0 mi ENE 32.2 mph - N/A   Haze
5:41 AM -11.2 °F -39.7 °F -16.6 °F 77% 30.72 in 1.5 mi ENE 26.5 mph - N/A   Haze
5:56 AM -11.9 °F -41.1 °F -17.0 °F 78% 30.73 in 1.2 mi ENE 27.6 mph - N/A   Haze
6:03 AM -11.2 °F -39.2 °F -16.6 °F 77% 30.72 in 1.5 mi ENE 25.3 mph - N/A   Haze
6:56 AM -11.2 °F -38.7 °F -18.4 °F 70% 30.72 in 1.8 mi ENE 24.2 mph - N/A   Haze
7:07 AM -13.0 °F -42.6 °F -18.4 °F 77% 30.72 in 1.0 mi ENE 27.6 mph - N/A   Haze
7:14 AM -13.0 °F -42.6 °F -18.4 °F 77% 30.72 in 0.5 mi ENE 27.6 mph - N/A   Haze
7:56 AM -11.9 °F -41.1 °F -17.9 °F 75% 30.73 in 0.5 mi ENE 27.6 mph - N/A   Haze
8:03 AM -11.2 °F -40.1 °F -18.4 °F 70% 30.72 in 0.8 mi ENE 27.6 mph - N/A   Haze
8:23 AM -11.2 °F -39.7 °F -16.6 °F 77% 30.72 in 0.8 mi ENE 26.5 mph - N/A   Haze
8:56 AM -10.8 °F -38.7 °F -15.9 °F 78% 30.75 in 0.8 mi ENE 25.3 mph - N/A   Haze
9:20 AM -9.4 °F -37.3 °F -14.8 °F 77% 30.73 in 0.5 mi ENE 26.5 mph 33.4 mph N/A   Haze
9:35 AM -11.2 °F -39.7 °F -16.6 °F 77% 30.73 in 0.5 mi ENE 26.5 mph - N/A   Haze
9:56 AM -9.9 °F -38.9 °F -15.9 °F 75% 30.74 in 0.5 mi ENE 28.8 mph - N/A   Haze
10:20 AM -11.2 °F -38.2 °F -16.6 °F 77% 30.73 in 0.8 mi ENE 23.0 mph - N/A   Haze
10:31 AM -11.2 °F -38.7 °F -16.6 °F 77% 30.74 in 1.0 mi ENE 24.2 mph - N/A   Haze
10:48 AM -11.2 °F -38.2 °F -16.6 °F 77% 30.74 in 0.8 mi ENE 23.0 mph - N/A   Haze
10:56 AM -10.8 °F -39.2 °F -17.0 °F 74% 30.76 in 0.8 mi ENE 26.5 mph 31.1 mph N/A   Haze
11:23 AM -9.4 °F -37.3 °F -16.6 °F 71% 30.74 in 1.0 mi ENE 26.5 mph - N/A   Haze
11:39 AM -9.4 °F -36.3 °F -14.8 °F 77% 30.75 in 1.2 mi ENE 24.2 mph - N/A   Haze
11:46 AM -9.4 °F -35.2 °F -14.8 °F 77% 30.75 in 1.5 mi ENE 21.9 mph - N/A   Haze
11:56 AM -9.9 °F -36.0 °F -15.0 °F 78% 30.76 in 1.8 mi ENE 21.9 mph - N/A   Haze
12:05 PM -9.4 °F -34.1 °F -14.8 °F 77% 30.75 in 2.5 mi ENE 19.6 mph - N/A   Haze
12:17 PM -7.6 °F -32.3 °F -13.0 °F 77% 30.75 in 1.5 mi ENE 20.7 mph - N/A   Haze
12:23 PM -7.6 °F -33.9 °F -14.8 °F 71% 30.75 in 1.0 mi ENE 24.2 mph 31.1 mph N/A   Haze
12:30 PM -7.6 °F -33.4 °F -13.0 °F 77% 30.75 in 1.2 mi ENE 23.0 mph 32.2 mph N/A   Haze
12:40 PM -7.6 °F -33.9 °F -13.0 °F 77% 30.75 in 1.0 mi ENE 24.2 mph - N/A   Haze
12:56 PM -8.0 °F -33.3 °F -13.0 °F 79% 30.76 in 1.0 mi ENE 21.9 mph - N/A   Haze
1:15 PM -5.8 °F -29.9 °F -11.2 °F 77% 30.74 in 1.2 mi ENE 20.7 mph 27.6 mph N/A   Haze
1:31 PM -5.8 °F -31.5 °F -11.2 °F 77% 30.74 in 1.8 mi ENE 24.2 mph - N/A   Haze
1:56 PM -6.0 °F -30.7 °F -10.8 °F 79% 30.76 in 1.5 mi NE 21.9 mph - N/A   Haze
2:23 PM -5.8 °F -31.5 °F -11.2 °F 77% 30.75 in 2.0 mi ENE 24.2 mph - N/A   Haze
2:48 PM -5.8 °F -30.5 °F -11.2 °F 77% 30.74 in 1.5 mi ENE 21.9 mph - N/A   Haze
2:56 PM -6.0 °F -30.2 °F -10.8 °F 79% 30.76 in 1.5 mi ENE 20.7 mph - N/A   Haze
3:11 PM -5.8 °F -29.4 °F -11.2 °F 77% 30.74 in 2.5 mi ENE 19.6 mph - N/A   Haze
3:35 PM -5.8 °F -30.5 °F -11.2 °F 77% 30.74 in 3.0 mi ENE 21.9 mph - N/A   Haze
3:56 PM -4.9 °F -28.8 °F -10.8 °F 76% 30.75 in 3.0 mi ENE 20.7 mph - N/A   Haze
4:56 PM -4.9 °F -28.2 °F -9.9 °F 79% 30.74 in - ENE 19.6 mph - N/A   Clear
5:23 PM -5.8 °F -30.5 °F -11.2 °F 77% 30.72 in - ENE 21.9 mph - N/A   Mostly Cloudy
5:56 PM -6.0 °F -31.2 °F -10.8 °F 79% 30.73 in - NE 23.0 mph - N/A   Mostly Cloudy
6:30 PM -5.8 °F -30.5 °F -11.2 °F 77% 30.71 in - ENE 21.9 mph - N/A   Clear
6:56 PM -7.6 °F -32.3 °F -11.2 °F 84% 30.72 in - ENE 20.7 mph - N/A   Clear
7:56 PM -8.0 °F -31.6 °F -13.9 °F 75% 30.73 in - ENE 18.4 mph - N/A   Clear
8:56 PM -9.9 °F -33.5 °F -15.9 °F 75% 30.73 in - ENE 17.3 mph - N/A   Clear
9:56 PM -11.2 °F -35.8 °F -16.6 °F 77% 30.70 in - NE 18.4 mph - N/A   Clear
10:56 PM -13.9 °F -39.3 °F -18.9 °F 78% 30.71 in - NE 18.4 mph - N/A   Clear
11:56 PM -13.9 °F -37.9 °F -19.8 °F 75% 30.71 in - NE 16.1 mph - N/A   Clear